[[{"header":{"parameterUnit":"m.s-1","parameterCategory":2,"la1":30.2991,"la2":30.254,"lo1":-89.0895,"lo2":-89.0444,"dy":0.0017,"dx":0.0017,"nx":28,"ny":28,"refTime":"2023-07-18T03:00:00:Z","depth":"0","parameterNumber":2,"parameterNumberName":"U-component_of_CURRENTS"},"data":[0,0,0,0,0,0,0,0,0,0,0,0,0,0,0,0,0,0,0,0,0,0,0,0,0,0,0,0,0,0,0,0,0,0,0,0,0,0,0,0,0,0,0,0,0,0,0,0,0,0,0,0,0,0,0,0,0,0,0.4792,0.4794,0,0.4977,0.4978,0.4979,0.4923,0.4919,0.4916,0.4913,0.4955,0.4959,0.4963,0,0,0,0,0,0,0,0,0,0,0,0,0,0.454,0.4543,0.4791,0.4794,0.4797,0.4976,0.4978,0.498,0.4923,0.4919,0.4915,0.4912,0.4953,0.4958,0.4963,0,0,0,0,0,0,0,0,0,0,0,0,0,0.4671,0.4544,0.4791,0.4796,0.4799,0.4976,0.4978,0.498,0.4924,0.4919,0.4914,0.491,0.4952,0.4958,0.4964,0.5097,0,0,0.4982,0.4985,0,0,0,0,0,0,0,0,0.4664,0.468,0.4793,0.4796,0.48,0.4928,0.4905,0.5015,0.4925,0.4869,0.4913,0.4908,0.4941,0.4948,0.4984,0.5099,0.5101,0.4983,0.4987,0.4989,0.4991,0,0,0,0,0,0,0,0.4654,0.4672,0.4857,0.4796,0.4801,0.4842,0.4853,0.4926,0.4921,0.4873,0.4871,0.4906,0.494,0.4979,0.4985,0.5101,0.4983,0.4988,0.4992,0.4994,0.5409,0.5416,0,0,0,0,0,0,0.4646,0.4664,0.4851,0.4863,0.4728,0.485,0.4862,0.4886,0.4923,0.4928,0.491,0.4903,0.4971,0.4978,0.4986,0.5198,0.4989,0.4995,0.4998,0.5401,0.541,0.5418,0,0,0,0,0,0,0.4639,0.466,0.4844,0.4774,0.4801,0.4859,0.4886,0.4892,0.4942,0.4954,0.4953,0.4954,0.4967,0.4977,0.5101,0.5196,0.4998,0.5003,0.5393,0.5404,0.5414,0.5589,0,0,0,0,0,0,0.4631,0.4657,0.4694,0.4773,0.4805,0.4992,0.4892,0.4899,0.4973,0.4966,0.4993,0.4991,0.4964,0.5093,0.5107,0.5201,0.5008,0.5383,0.5398,0.5411,0.5574,0.5605,0.5631,0,0,0,0,0,0.4621,0.4719,0.4695,0.4719,0.4846,0.4998,0.5021,0.5039,0.498,0.5053,0.5067,0.499,0.5189,0.5105,0.512,0.5217,0.5377,0.5394,0.541,0.5561,0.5599,0.563,0,0,0,0,0,0,0.4649,0.4725,0.47,0.4815,0.4908,0.4992,0.5079,0.5072,0.5144,0.513,0.5092,0.5099,0.5239,0.5234,0.5141,0.5386,0.527,0.529,0.538,0.5415,0.5443,0.5496,0.5013,0,0,0,0,0,0.4668,0.476,0.4822,0.4934,0.4969,0.502,0.5087,0.5103,0.5171,0.5195,0.5208,0.5248,0.5329,0.5369,0.5435,0.5582,0.5584,0.5659,0.5688,0.5711,0.5773,0.5883,0.5925,0.5472,0.5472,0.5472,0,0,0.4726,0.4778,0.4836,0.4948,0.5008,0.5142,0.5048,0.5182,0.5299,0.5195,0.5352,0.5353,0.5395,0.5547,0.561,0.5546,0.5838,0.5732,0.5751,0.5801,0.5905,0.5948,0.5986,0.5484,0.5482,0.548,0,0,0.4919,0.4912,0.5053,0.513,0.5241,0.5273,0.5315,0.5402,0.5434,0.5587,0.5541,0.5625,0.5729,0.5792,0.5831,0.6079,0.5985,0.6074,0.6259,0.6365,0.6401,0.6434,0.6455,0.6488,0.6086,0.6087,0.6087,0,0.4971,0.5129,0.5131,0.528,0.5353,0.5336,0.549,0.557,0.5692,0.573,0.5663,0.5845,0.5866,0.6063,0.6146,0.6143,0.6147,0.6104,0.6397,0.6429,0.646,0.6474,0.6508,0.6097,0.6096,0.6095,0.6094,0,0.527,0.5376,0.5473,0.5622,0.5712,0.585,0.5914,0.5997,0.5988,0.6031,0.6182,0.6219,0.6308,0.6338,0.6322,0.6558,0.647,0.6408,0.629,0.6515,0.6516,0.6548,0.6112,0.6108,0.6105,0.6103,0,0,0.5418,0.5625,0.5651,0.5732,0.5874,0.5972,0.6154,0.6285,0.6352,0.6457,0.6553,0.6734,0.6676,0.6728,0.6704,0.6818,0.7018,0.672,0.672,0.6708,0.7195,0.7048,0.7067,0.6984,0.6992,0.6998,0.7092,0,0.5629,0.59,0.5959,0.6211,0.6336,0.6342,0.6488,0.6599,0.6624,0.6712,0.677,0.6847,0.6848,0.6836,0.6989,0.6985,0.712,0.6996,0.7013,0.7014,0.6828,0.7108,0.6719,0.6766,0.7123,0.7128,0.7132,0,0.5916,0.6023,0.6261,0.6418,0.6463,0.6581,0.6689,0.6825,0.6934,0.6939,0.7042,0.7027,0.7224,0.7139,0.7377,0.7281,0.7309,0.7311,0.7312,0.7151,0.6932,0.6614,0.681,0.6599,0.718,0.7177,0.7173,0,0.6009,0.6255,0.6405,0.6471,0.6638,0.6694,0.6762,0.6869,0.6912,0.7038,0.7029,0.7251,0.7267,0.7433,0.7483,0.7425,0.7678,0.7567,0.7484,0.7467,0.7138,0.708,0.7111,0.7799,0.7799,0.7799,0.7799,0,0.6207,0.6341,0.6428,0.6505,0.6605,0.6726,0.6801,0.6886,0.6958,0.6999,0.7116,0.7167,0.7343,0.7468,0.7557,0.7637,0.7755,0.7604,0.7538,0.7183,0.7132,0.6929,0.687,0.7802,0.7801,0.7801,0.78,0,0.6285,0.6389,0.6529,0.6633,0.6651,0.6695,0.6734,0.6772,0.6868,0.6911,0.6936,0.7107,0.7263,0.7426,0.7627,0.7654,0.7544,0.7767,0.7306,0.7189,0.6866,0.683,0.668,0.6506,0.768,0.7678,0.7676,0,0.6349,0.6428,0.651,0.6507,0.6518,0.6566,0.6569,0.6684,0.6697,0.6864,0.6871,0.7035,0.7121,0.7368,0.7434,0.7566,0.7424,0.7289,0.7163,0.6888,0.68,0.6596,0.6446,0.6763,0.6753,0.6746,0.674,0,0.6353,0.6359,0.6399,0.6391,0.6382,0.6384,0.6403,0.6398,0.6535,0.6571,0.6661,0.675,0.6951,0.6901,0.7073,0.7121,0.6897,0.7136,0.6986,0.6258,0.5905,0.5683,0.6614,0.6673,0.6679,0.6684,0.6688,0.6691,0.6257,0.6237,0.6248,0.6225,0.6221,0.6165,0.6088,0.6124,0.6116,0.6114,0.6365,0.6355,0.6434,0.6584,0.6613,0.6333,0.6441,0.6129,0.6155,0.601,0.5722,0.6507,0.6412,0.6417,0.6421,0.6425,0.6428,0,0.608,0.6081,0.607,0.6018,0.5933,0.5992,0.5937,0.5806,0.5704,0.5796,0.5826,0.5728,0.5658,0.5711,0.5561,0.5389,0.5177,0.5246,0.4858,0.4801,0.559,0.5428,0.4948,0.4948,0.4949,0.4949,0.4949,0.4949,0.5988,0.5914,0.5914,0.5731,0.5681,0.5483,0.5401,0.5251,0.5231,0.5003,0.4873,0.4926,0.5023,0.4988,0.475,0.4644,0.4367,0.4121,0.4262,0.4782,0.4864,0.4942,0.4776,0.4167,0.4166,0.3171,0.3164,0.3158]},{"header":{"parameterUnit":"m.s-1","parameterCategory":2,"la1":30.2991,"la2":30.254,"lo1":-89.0895,"lo2":-89.0444,"dy":0.0017,"dx":0.0017,"nx":28,"ny":28,"refTime":"2023-07-18T03:00:00:Z","depth":"0","parameterNumber":3,"parameterNumberName":"V-component_of_CURRENTS"},"data":[0,0,0,0,0,0,0,0,0,0,0,0,0,0,0,0,0,0,0,0,0,0,0,0,0,0,0,0,0,0,0,0,0,0,0,0,0,0,0,0,0,0,0,0,0,0,0,0,0,0,0,0,0,0,0,0,0,0,0.0022,0.0022,0,-0.0013,-0.0013,-0.0014,-0.0086,-0.0087,-0.0088,-0.0089,-0.0209,-0.0211,-0.0213,0,0,0,0,0,0,0,0,0,0,0,0,0,-0.0018,-0.0017,0.0022,0.0022,0.0022,-0.0012,-0.0013,-0.0014,-0.0086,-0.0087,-0.0089,-0.009,-0.0208,-0.0211,-0.0213,0,0,0,0,0,0,0,0,0,0,0,0,0,-0.0025,-0.0017,0.0022,-0.0014,-0.0018,-0.0012,-0.0013,-0.0014,-0.0086,-0.0087,-0.0089,-0.009,-0.0207,-0.021,-0.0214,-0.0203,0,0,-0.0224,-0.0225,0,0,0,0,0,0,0,0,-0.0025,-0.0024,-0.0009,-0.0012,-0.0016,-0.0043,-0.0071,-0.008,-0.0085,-0.0065,-0.0089,-0.0091,-0.0157,-0.0164,-0.0173,-0.0208,-0.0213,-0.0224,-0.0226,-0.0227,-0.0228,0,0,0,0,0,0,0,-0.0024,-0.0024,0.0004,-0.0009,-0.0013,-0.0044,-0.0047,-0.0073,-0.0106,-0.0066,-0.0071,-0.0067,-0.016,-0.0169,-0.0176,-0.0215,-0.0224,-0.0227,-0.0229,-0.023,-0.0222,-0.022,0,0,0,0,0,0,-0.0007,-0.0022,0.0005,0.0004,-0.0019,-0.0042,-0.0045,-0.0036,-0.0105,-0.0114,-0.0066,-0.007,-0.0163,-0.0172,-0.0181,-0.0137,-0.0227,-0.023,-0.0232,-0.0224,-0.0221,-0.0219,0,0,0,0,0,0,-0.0007,-0.0004,0.0007,-0.0008,-0.0008,-0.0039,-0.0028,-0.0036,-0.0047,-0.0102,-0.0115,-0.0069,-0.0164,-0.0176,-0.0195,-0.0143,-0.0232,-0.0235,-0.0227,-0.0223,-0.022,-0.0071,0,0,0,0,0,0,-0.0008,-0.0004,0.0012,-0.0006,-0.0006,0.003,-0.0026,-0.0035,-0.004,-0.0047,-0.0109,-0.0122,-0.0166,-0.019,-0.0199,-0.015,-0.0237,-0.023,-0.0225,-0.0221,-0.0079,-0.0063,-0.005,0,0,0,0,0,-0.001,0.0033,0.0013,0.0017,0.0016,0.0033,0.003,-0.0002,-0.0039,-0.0023,-0.0074,-0.012,-0.0169,-0.0191,-0.0202,-0.0152,-0.0232,-0.0226,-0.0222,-0.0085,-0.0066,-0.005,0,0,0,0,0,0,0.0036,0.003,0.0007,0.0048,0.0045,0.0023,0.0039,0.0008,-0.002,-0.003,-0.0102,-0.0116,-0.0104,-0.0152,-0.0175,-0.0137,-0.0204,-0.02,-0.0096,-0.0079,-0.0065,-0.0001,-0.024,0,0,0,0,0,0.0051,0.007,0.0061,0.0092,0.0096,0.0063,0.0065,0.0047,0.0021,0.0007,-0.004,-0.008,-0.0089,-0.0106,-0.0124,-0.0116,-0.0111,-0.0088,-0.0073,-0.0061,-0.0015,0.0072,0.01,-0.0203,-0.0203,-0.0203,0,0,0.0082,0.0076,0.0091,0.01,0.0091,0.012,0.006,0.008,0.0102,-0.0001,0.0008,-0.0029,-0.0074,-0.0052,-0.0052,-0.0091,0.0016,-0.0054,-0.0043,-0.0003,0.008,0.011,0.0137,-0.02,-0.02,-0.0201,0,0,0.0152,0.0143,0.0182,0.0184,0.0185,0.0172,0.0181,0.0165,0.0158,0.0166,0.0108,0.0112,0.0064,0.0066,0.0055,0.014,0.0098,0.0116,0.0234,0.0317,0.0344,0.0367,0.0364,0.0387,0.0115,0.0116,0.0116,0,0.0188,0.0229,0.02,0.0233,0.0251,0.0201,0.0253,0.0248,0.0225,0.0248,0.019,0.0194,0.0141,0.0204,0.0225,0.018,0.0187,0.0168,0.0341,0.0364,0.0386,0.0378,0.0401,0.0123,0.0122,0.0122,0.0121,0,0.0282,0.0312,0.034,0.0358,0.0375,0.0415,0.0407,0.0425,0.0401,0.0399,0.0452,0.0396,0.0408,0.0385,0.0324,0.0449,0.0387,0.0358,0.0304,0.0427,0.0407,0.0429,0.0134,0.0132,0.0129,0.0127,0,0,0.0377,0.0403,0.0414,0.0446,0.0447,0.0484,0.053,0.0584,0.0646,0.0621,0.0712,0.0689,0.0666,0.0656,0.059,0.0642,0.0763,0.0567,0.0568,0.0578,0.0899,0.0801,0.0813,0.0769,0.0775,0.078,0.0805,0,0.0462,0.0556,0.0541,0.0636,0.0688,0.0666,0.0724,0.0762,0.0774,0.0845,0.083,0.0877,0.0765,0.0778,0.0824,0.0797,0.0836,0.0756,0.0768,0.0767,0.068,0.0843,0.0761,0.0776,0.0826,0.0829,0.0832,0,0.0567,0.0611,0.0721,0.0792,0.0817,0.0865,0.0968,0.1012,0.1084,0.1099,0.1147,0.1118,0.1183,0.107,0.1125,0.1079,0.1015,0.0975,0.0975,0.0863,0.0715,0.067,0.0812,0.0525,0.0864,0.0861,0.0859,0,0.0668,0.0747,0.0842,0.0862,0.0929,0.099,0.1033,0.1104,0.1169,0.1267,0.1329,0.1381,0.1419,0.1404,0.1295,0.1233,0.1345,0.1243,0.1088,0.1074,0.1001,0.0974,0.0892,0.1311,0.131,0.131,0.131,0,0.0775,0.0857,0.09,0.0955,0.1076,0.1096,0.1233,0.1278,0.1375,0.1499,0.147,0.1582,0.1517,0.1537,0.1417,0.1337,0.1447,0.1165,0.112,0.1039,0.1016,0.0755,0.061,0.1311,0.1311,0.1311,0.1311,0,0.088,0.0909,0.101,0.1092,0.1123,0.1211,0.1317,0.142,0.1498,0.1662,0.1704,0.1773,0.1814,0.1701,0.1676,0.1492,0.1254,0.1343,0.1205,0.1145,0.0693,0.056,0.0479,0.0371,0.1187,0.1185,0.1184,0,0.0949,0.1009,0.1094,0.1141,0.1177,0.1292,0.1374,0.1467,0.1576,0.1792,0.1892,0.1974,0.2088,0.1976,0.1696,0.149,0.1231,0.1189,0.1064,0.0712,0.0532,0.0429,0.0337,0.0992,0.0989,0.0987,0.0985,0,0.1044,0.1061,0.1122,0.1217,0.1301,0.1417,0.1548,0.1658,0.1815,0.1993,0.2246,0.2375,0.2247,0.2056,0.1703,0.1492,0.0957,0.113,0.0853,0.0472,0.028,0.0136,0.0855,0.0965,0.0967,0.0968,0.0969,0.097,0.1081,0.1123,0.1179,0.1273,0.1381,0.1545,0.1676,0.1861,0.21,0.2433,0.2521,0.2793,0.2355,0.1903,0.1555,0.0759,0.0832,0.0485,0.0377,0.0324,0.0164,0.0797,0.08,0.0801,0.0802,0.0803,0.0804,0,0.1098,0.1139,0.1229,0.1349,0.1491,0.1549,0.179,0.1974,0.2301,0.266,0.2938,0.2893,0.2328,0.169,0.0656,0.0111,-0.0075,-0.0203,-0.0371,-0.0407,0.0229,0.0159,-0.0079,-0.0079,-0.0078,-0.0078,-0.0078,-0.0077,0.1095,0.1156,0.1202,0.1406,0.1524,0.1753,0.1913,0.2226,0.2529,0.2991,0.3212,0.3349,0.2787,0.0948,-0.033,-0.0618,-0.0953,-0.1051,-0.1159,-0.0785,-0.0731,-0.0678,-0.0779,-0.121,-0.1211,-0.1777,-0.1783,-0.1787]}],[{"header":{"parameterUnit":"m.s-1","parameterCategory":2,"la1":30.2991,"la2":30.254,"lo1":-89.0895,"lo2":-89.0444,"dy":0.0017,"dx":0.0017,"nx":28,"ny":28,"refTime":"2023-07-18T03:00:00:Z","depth":"2","parameterNumber":2,"parameterNumberName":"U-component_of_CURRENTS"},"data":[0,0,0,0,0,0,0,0,0,0,0,0,0,0,0,0,0,0,0,0,0,0,0,0,0,0,0,0,0,0,0,0,0,0,0,0,0,0,0,0,0,0,0,0,0,0,0,0,0,0,0,0,0,0,0,0,0,0,0.3315,0.3316,0,0.3371,0.3371,0.3371,0.3347,0.3347,0.3346,0.3345,0.3362,0.3364,0.3365,0,0,0,0,0,0,0,0,0,0,0,0,0,0.316,0.3162,0.3315,0.3316,0.3317,0.3371,0.3371,0.3371,0.3348,0.3347,0.3346,0.3345,0.3362,0.3364,0.3365,0,0,0,0,0,0,0,0,0,0,0,0,0,0.3217,0.3163,0.3315,0.3316,0.3318,0.3371,0.3371,0.3371,0.3348,0.3347,0.3345,0.3344,0.3362,0.3363,0.3365,0.34,0,0,0.3371,0.3371,0,0,0,0,0,0,0,0,0.3214,0.3222,0.3315,0.3316,0.3318,0.3356,0.3323,0.3381,0.3348,0.333,0.3345,0.3344,0.3362,0.3363,0.3369,0.3401,0.3402,0.3371,0.3372,0.3373,0.3373,0,0,0,0,0,0,0,0.321,0.3219,0.3331,0.3316,0.3318,0.3306,0.3312,0.3334,0.3346,0.3331,0.3331,0.3348,0.3361,0.3367,0.3369,0.3402,0.3371,0.3372,0.3374,0.3374,0.3709,0.3716,0,0,0,0,0,0,0.3218,0.3216,0.3329,0.3333,0.3269,0.331,0.3317,0.334,0.3347,0.3349,0.3349,0.3347,0.3364,0.3367,0.3369,0.3568,0.3373,0.3374,0.3375,0.3701,0.3711,0.3719,0,0,0,0,0,0,0.3215,0.3228,0.3327,0.328,0.3292,0.3315,0.3341,0.3342,0.337,0.3362,0.3361,0.3378,0.3364,0.3367,0.3461,0.3562,0.3375,0.3377,0.3692,0.3704,0.3715,0.3864,0,0,0,0,0,0,0.321,0.3227,0.3255,0.3281,0.3295,0.3368,0.3343,0.3344,0.3383,0.3381,0.3387,0.3385,0.3363,0.3459,0.3463,0.3561,0.3378,0.3682,0.3697,0.3711,0.3849,0.3879,0.3905,0,0,0,0,0,0.3205,0.3259,0.3256,0.3271,0.3331,0.337,0.3376,0.3382,0.3386,0.3402,0.3453,0.3386,0.3556,0.3466,0.3469,0.3569,0.3675,0.3693,0.371,0.3836,0.3873,0.3904,0,0,0,0,0,0,0.3199,0.3263,0.326,0.3328,0.3347,0.3368,0.3407,0.3406,0.3457,0.3466,0.3459,0.3464,0.359,0.3582,0.3483,0.3726,0.3616,0.3635,0.3712,0.3746,0.3774,0.3744,0.338,0,0,0,0,0,0.3214,0.3273,0.3306,0.3355,0.3381,0.3397,0.3421,0.3416,0.3461,0.3479,0.3508,0.3574,0.3665,0.3702,0.3755,0.3867,0.3849,0.3953,0.3981,0.4003,0.3994,0.4051,0.4079,0.3777,0.3777,0.3776,0,0,0.3232,0.3268,0.3305,0.3359,0.3385,0.3446,0.3408,0.345,0.3518,0.3477,0.3606,0.3654,0.372,0.3859,0.3917,0.386,0.4104,0.4026,0.4044,0.4021,0.4072,0.41,0.4124,0.3789,0.3786,0.3785,0,0,0.3281,0.3327,0.3387,0.3422,0.3463,0.3488,0.351,0.3555,0.3596,0.3726,0.3739,0.3854,0.3982,0.4045,0.41,0.4323,0.4244,0.4362,0.447,0.4527,0.4549,0.4568,0.4647,0.4672,0.4378,0.4379,0.4379,0,0.3275,0.3354,0.3405,0.3465,0.3502,0.3522,0.3576,0.3649,0.3722,0.3778,0.3798,0.4036,0.4084,0.4252,0.4357,0.4377,0.4392,0.4318,0.4553,0.4571,0.4587,0.4663,0.4688,0.4388,0.4387,0.4386,0.4385,0,0.336,0.3425,0.3469,0.3561,0.3623,0.3658,0.3759,0.3838,0.392,0.3983,0.4167,0.4262,0.4399,0.4466,0.4491,0.4658,0.4628,0.4566,0.4435,0.4625,0.4696,0.4719,0.4401,0.4398,0.4395,0.4393,0,0,0.3316,0.3479,0.3495,0.3554,0.3653,0.3718,0.3867,0.3983,0.4095,0.4226,0.4379,0.4587,0.4619,0.4687,0.4724,0.479,0.4972,0.4744,0.4743,0.4769,0.5116,0.4912,0.4917,0.4925,0.4929,0.4932,0.5137,0,0.3329,0.3452,0.3533,0.3673,0.3752,0.3833,0.3982,0.4112,0.4239,0.441,0.4535,0.4708,0.4714,0.4803,0.4882,0.4917,0.503,0.4923,0.4975,0.4978,0.4725,0.4935,0.4511,0.4639,0.5159,0.5163,0.5165,0,0.3396,0.3452,0.3575,0.3744,0.3788,0.3904,0.4109,0.4232,0.4459,0.4562,0.4725,0.4817,0.499,0.4968,0.513,0.5051,0.5131,0.5153,0.516,0.4913,0.4813,0.4531,0.466,0.5202,0.5199,0.5196,0.5194,0,0.339,0.3514,0.3605,0.3655,0.3843,0.395,0.4075,0.4295,0.4417,0.4665,0.4792,0.4954,0.511,0.5163,0.5237,0.5208,0.5367,0.533,0.5239,0.5227,0.4845,0.479,0.5493,0.5493,0.5492,0.5492,0.5491,0,0.3416,0.3499,0.3626,0.3693,0.3815,0.3984,0.4165,0.431,0.4542,0.4661,0.4881,0.4979,0.5169,0.527,0.5286,0.5305,0.5422,0.529,0.5267,0.4897,0.4846,0.5288,0.5261,0.55,0.5498,0.5496,0.5495,0,0.347,0.3527,0.3633,0.3788,0.3839,0.3964,0.4195,0.4317,0.4561,0.4726,0.4817,0.5084,0.5176,0.5305,0.5422,0.5395,0.5393,0.5392,0.4954,0.4873,0.5228,0.5209,0.5345,0.5339,0.5335,0.5331,0.5328,0,0.3545,0.3592,0.3684,0.3715,0.3797,0.3966,0.4061,0.4299,0.4392,0.4693,0.4737,0.4994,0.5044,0.5177,0.512,0.5143,0.5315,0.4838,0.4708,0.5251,0.5216,0.5203,0.519,0.4321,0.431,0.4301,0.4293,0,0.3602,0.3607,0.3649,0.3685,0.3769,0.3844,0.3996,0.4047,0.4271,0.4406,0.4508,0.46,0.4785,0.4598,0.4703,0.4639,0.4771,0.4651,0.5341,0.4387,0.429,0.4254,0.4274,0.4212,0.422,0.4226,0.423,0.4233,0.3587,0.3585,0.3568,0.3602,0.3657,0.3641,0.3663,0.3778,0.3829,0.3935,0.4101,0.4144,0.4246,0.4147,0.4004,0.3965,0.4307,0.4187,0.4214,0.4252,0.4059,0.3954,0.3782,0.3787,0.3792,0.3796,0.38,0,0.3448,0.3426,0.3474,0.3393,0.3353,0.3489,0.3523,0.3476,0.3412,0.3543,0.3609,0.3341,0.3271,0.3405,0.3198,0.3218,0.3185,0.3129,0.306,0.3143,0.3217,0.2969,0.2405,0.2401,0.2397,0.2393,0,0,0.3322,0.3212,0.3207,0.3025,0.3066,0.2964,0.2965,0.2941,0.2987,0.2863,0.2879,0.3135,0.3295,0.28,0.273,0.2538,0.2821,0.244,0.3559,0.3558,0.3626,0.3826,0.3538,0,0,0,0,0]},{"header":{"parameterUnit":"m.s-1","parameterCategory":2,"la1":30.2991,"la2":30.254,"lo1":-89.0895,"lo2":-89.0444,"dy":0.0017,"dx":0.0017,"nx":28,"ny":28,"refTime":"2023-07-18T03:00:00:Z","depth":"2","parameterNumber":3,"parameterNumberName":"V-component_of_CURRENTS"},"data":[0,0,0,0,0,0,0,0,0,0,0,0,0,0,0,0,0,0,0,0,0,0,0,0,0,0,0,0,0,0,0,0,0,0,0,0,0,0,0,0,0,0,0,0,0,0,0,0,0,0,0,0,0,0,0,0,0,0,0.0002,0.0002,0,-0.0021,-0.0021,-0.0021,-0.0054,-0.0054,-0.0055,-0.0055,-0.0165,-0.0167,-0.017,0,0,0,0,0,0,0,0,0,0,0,0,0,-0.0017,-0.0016,0.0002,0.0002,0.0002,-0.0021,-0.0021,-0.0021,-0.0054,-0.0054,-0.0055,-0.0055,-0.0164,-0.0167,-0.017,0,0,0,0,0,0,0,0,0,0,0,0,0,-0.0022,-0.0016,0.0002,-0.0016,-0.0018,-0.0021,-0.0021,-0.0022,-0.0054,-0.0054,-0.0055,-0.0056,-0.0163,-0.0167,-0.0171,-0.0179,0,0,-0.0182,-0.0184,0,0,0,0,0,0,0,0,-0.0021,-0.0021,-0.0013,-0.0015,-0.0017,-0.0034,-0.0068,-0.0078,-0.0053,-0.0041,-0.0055,-0.0056,-0.0128,-0.0135,-0.0138,-0.0184,-0.0189,-0.0182,-0.0185,-0.0186,-0.0187,0,0,0,0,0,0,0,-0.0021,-0.002,-0.0008,-0.0014,-0.0016,-0.0035,-0.0037,-0.007,-0.0083,-0.0042,-0.0044,-0.0045,-0.013,-0.0134,-0.0141,-0.0191,-0.0182,-0.0185,-0.0188,-0.0189,-0.0341,-0.0343,0,0,0,0,0,0,-0.0013,-0.002,-0.0007,-0.0008,-0.002,-0.0034,-0.0036,-0.0029,-0.0081,-0.0088,-0.0045,-0.0047,-0.0127,-0.0136,-0.0145,-0.0185,-0.0186,-0.019,-0.0192,-0.034,-0.0342,-0.0344,0,0,0,0,0,0,-0.0014,-0.0012,-0.0006,-0.0015,-0.0015,-0.0033,-0.0025,-0.0029,-0.003,-0.0081,-0.0091,-0.0042,-0.0128,-0.014,-0.0187,-0.0188,-0.0191,-0.0195,-0.0337,-0.034,-0.0343,-0.0248,0,0,0,0,0,0,-0.0014,-0.0011,-0.0003,-0.0014,-0.0014,0.0006,-0.0024,-0.0029,-0.003,-0.0033,-0.0082,-0.0093,-0.013,-0.0181,-0.0191,-0.0193,-0.0198,-0.0335,-0.0339,-0.0342,-0.0248,-0.0247,-0.0245,0,0,0,0,0,-0.0014,0.0011,-0.0002,-0.0001,-0.0002,0.0008,0.0006,-0.0011,-0.0029,-0.0018,-0.0072,-0.0092,-0.0211,-0.0185,-0.0196,-0.02,-0.0334,-0.0338,-0.0342,-0.0249,-0.0247,-0.0245,0,0,0,0,0,0,0.0012,0.0009,-0.0005,0.0019,0.0016,0.0003,0.0017,-0.0004,-0.0034,-0.0041,-0.01,-0.0114,-0.0157,-0.0203,-0.0174,-0.0263,-0.0281,-0.0288,-0.0208,-0.0206,-0.0204,-0.0167,-0.0201,0,0,0,0,0,0.002,0.0033,0.0026,0.0043,0.0051,0.0032,0.0032,0.0021,-0.0007,-0.002,-0.0062,-0.0126,-0.0182,-0.0212,-0.0259,-0.0298,-0.0306,-0.0319,-0.0317,-0.0315,-0.0298,-0.0304,-0.0298,-0.0357,-0.0357,-0.0357,0,0,0.0033,0.0034,0.004,0.0049,0.0049,0.0073,0.0031,0.0045,0.0052,-0.0029,-0.004,-0.0108,-0.0192,-0.0236,-0.0262,-0.0274,-0.0308,-0.032,-0.0317,-0.0301,-0.0307,-0.03,-0.0294,-0.036,-0.0359,-0.0359,0,0,0.0078,0.0072,0.0104,0.011,0.0116,0.0107,0.0114,0.0101,0.0085,0.006,-0.0009,-0.0082,-0.015,-0.0217,-0.0261,-0.0286,-0.0291,-0.0311,-0.0271,-0.0277,-0.027,-0.0264,-0.0265,-0.026,-0.0317,-0.0317,-0.0316,0,0.0097,0.0137,0.0115,0.0151,0.0165,0.0128,0.017,0.0152,0.0116,0.0102,0.0067,-0.0075,-0.0142,-0.0219,-0.0234,-0.0276,-0.027,-0.0259,-0.0266,-0.0261,-0.0257,-0.026,-0.0255,-0.0313,-0.0313,-0.0313,-0.0314,0,0.0176,0.0201,0.0227,0.0257,0.026,0.0297,0.027,0.0261,0.0226,0.0195,0.0118,0.0001,-0.0086,-0.0134,-0.0187,-0.0216,-0.0219,-0.0248,-0.0249,-0.0243,-0.0249,-0.0246,-0.0307,-0.0308,-0.0309,-0.031,0,0,0.0236,0.0279,0.0286,0.0312,0.0325,0.0338,0.0346,0.0344,0.0339,0.0264,0.025,0.0103,0.0029,-0.003,-0.0132,-0.0158,-0.0134,-0.0179,-0.0181,-0.0142,-0.0123,-0.0176,-0.0178,-0.0141,-0.014,-0.014,-0.0137,0,0.0313,0.0415,0.0395,0.0459,0.0514,0.0468,0.0477,0.0453,0.0405,0.0382,0.0249,0.0177,0.007,0.0004,-0.0029,-0.0109,-0.0122,-0.0131,-0.017,-0.0171,-0.0186,-0.0175,-0.0154,-0.0154,-0.0134,-0.0134,-0.0133,0,0.0383,0.0458,0.0551,0.0576,0.059,0.0586,0.0582,0.0574,0.0521,0.0485,0.0389,0.0299,0.0199,0.0122,0.0012,0.0022,-0.0031,-0.009,-0.0092,-0.0167,-0.0218,-0.0164,-0.0149,-0.0128,-0.0129,-0.0129,-0.0129,0,0.0448,0.0533,0.0615,0.0634,0.0672,0.0656,0.0637,0.0592,0.0617,0.0519,0.0549,0.0391,0.0345,0.0236,0.0096,0.0072,0.0023,-0.0032,-0.0131,-0.0135,-0.0142,-0.0149,-0.0065,-0.0065,-0.0065,-0.0065,-0.0065,0,0.0522,0.0573,0.0639,0.0683,0.0746,0.0708,0.0721,0.0679,0.0678,0.077,0.0585,0.0647,0.0387,0.0326,0.0173,0.0035,0.0079,-0.0109,-0.0135,-0.0114,-0.0118,-0.0122,-0.0129,-0.0065,-0.0065,-0.0065,-0.0065,0,0.0522,0.0598,0.0678,0.0745,0.0766,0.0772,0.0801,0.0831,0.0805,0.0925,0.0917,0.0863,0.0762,0.0503,0.0333,0.0153,-0.0005,-0.0055,-0.0022,-0.0046,-0.0177,-0.0179,-0.0175,-0.0177,-0.0179,-0.018,-0.0181,0,0.0515,0.0575,0.0702,0.0769,0.0777,0.0813,0.0867,0.0874,0.0975,0.1115,0.1238,0.1148,0.115,0.0807,0.0429,0.0092,0.006,-0.0098,-0.0173,-0.0161,-0.0186,-0.0186,-0.0187,-0.0139,-0.0139,-0.014,-0.014,0,0.0512,0.0553,0.0649,0.0804,0.0875,0.0997,0.1096,0.1246,0.1351,0.1476,0.17,0.1689,0.1343,0.0979,0.044,0.0223,-0.0076,-0.012,-0.0083,-0.0131,-0.0131,-0.0155,-0.0155,-0.0145,-0.0144,-0.0144,-0.0144,-0.0144,0.0502,0.056,0.0717,0.0856,0.0996,0.1234,0.1355,0.1549,0.1792,0.203,0.204,0.199,0.1531,0.0815,0.041,-0.0063,-0.005,-0.0225,-0.022,-0.0216,-0.0229,-0.0234,-0.0268,-0.0268,-0.0268,-0.0269,-0.0269,0,0.0553,0.065,0.077,0.1029,0.1235,0.126,0.1578,0.1744,0.2086,0.2198,0.2302,0.1881,0.1436,0.0922,0.0218,-0.0196,-0.0227,-0.0315,-0.0262,-0.0255,-0.025,-0.0263,-0.0312,-0.0313,-0.0314,-0.0315,0,0,0.0607,0.0794,0.0887,0.1272,0.1397,0.1674,0.1864,0.2105,0.2252,0.2376,0.2295,0.2125,0.1527,0.1014,0.046,0.008,0.001,0.0002,0.0076,0.021,0.0221,-0.0166,-0.0176,0,0,0,0,0]}],[{"header":{"parameterUnit":"m.s-1","parameterCategory":2,"la1":30.2991,"la2":30.254,"lo1":-89.0895,"lo2":-89.0444,"dy":0.0017,"dx":0.0017,"nx":28,"ny":28,"refTime":"2023-07-18T03:00:00:Z","depth":"4","parameterNumber":2,"parameterNumberName":"U-component_of_CURRENTS"},"data":[0,0,0,0,0,0,0,0,0,0,0,0,0,0,0,0,0,0,0,0,0,0,0,0,0,0,0,0,0,0,0,0,0,0,0,0,0,0,0,0,0,0,0,0,0,0,0,0,0,0,0,0,0,0,0,0,0,0,0.1607,0.1608,0,0.1636,0.1636,0.1636,0.1694,0.1696,0.1697,0.1699,0.176,0.176,0.176,0,0,0,0,0,0,0,0,0,0,0,0,0,0.1546,0.1547,0.1607,0.1608,0.1608,0.1636,0.1636,0.1636,0.1694,0.1696,0.1698,0.1699,0.1759,0.176,0.176,0,0,0,0,0,0,0,0,0,0,0,0,0,0.157,0.1547,0.1607,0.1643,0.1646,0.1636,0.1636,0.1636,0.1694,0.1696,0.1698,0.17,0.1759,0.176,0.176,0.172,0,0,0.1762,0.1762,0,0,0,0,0,0,0,0,0.1569,0.1572,0.1637,0.164,0.1644,0.1666,0.1637,0.1667,0.1693,0.1673,0.1699,0.1701,0.1732,0.1734,0.1731,0.1723,0.1726,0.1762,0.1762,0.1762,0.1762,0,0,0,0,0,0,0,0.1567,0.1571,0.1615,0.1637,0.1642,0.1638,0.1644,0.1642,0.1688,0.1675,0.168,0.1687,0.1734,0.173,0.1733,0.1726,0.1762,0.1762,0.1762,0.1762,0.1756,0.1756,0,0,0,0,0,0,0.157,0.157,0.1615,0.1617,0.1614,0.1638,0.1644,0.1655,0.1688,0.1695,0.1685,0.1689,0.1728,0.1732,0.1735,0.1782,0.1762,0.1762,0.1763,0.1757,0.1756,0.1756,0,0,0,0,0,0,0.1569,0.1574,0.1614,0.1596,0.1601,0.1637,0.1648,0.1654,0.1695,0.1696,0.1704,0.1725,0.173,0.1734,0.1763,0.1782,0.1763,0.1763,0.1757,0.1756,0.1756,0.1817,0,0,0,0,0,0,0.1567,0.1573,0.1601,0.1596,0.1602,0.1632,0.1646,0.1653,0.1695,0.1702,0.1731,0.1737,0.1732,0.1763,0.1764,0.1782,0.1763,0.1758,0.1757,0.1756,0.1815,0.1818,0.1821,0,0,0,0,0,0.1564,0.1577,0.1602,0.1609,0.1633,0.1633,0.1636,0.1666,0.1695,0.1711,0.1733,0.1738,0.1758,0.1763,0.1764,0.1783,0.1758,0.1757,0.1756,0.1814,0.1818,0.1821,0,0,0,0,0,0,0.1566,0.1584,0.1612,0.1633,0.1651,0.1645,0.1666,0.1687,0.1714,0.1744,0.1741,0.1746,0.1766,0.1762,0.1768,0.1773,0.1755,0.1754,0.1799,0.1802,0.1805,0.1884,0.1764,0,0,0,0,0,0.1579,0.1599,0.1614,0.1638,0.1647,0.1667,0.1681,0.1709,0.1723,0.1741,0.1751,0.176,0.1751,0.1773,0.1758,0.1778,0.1832,0.1785,0.1788,0.1791,0.1852,0.1987,0.201,0.1752,0.1752,0.1752,0,0,0.1565,0.1602,0.16,0.1641,0.1657,0.1659,0.1681,0.1718,0.1737,0.1741,0.1773,0.1768,0.1752,0.1763,0.1773,0.1777,0.1868,0.1789,0.1792,0.1854,0.1989,0.2015,0.2039,0.1752,0.1752,0.1752,0,0,0.1551,0.1604,0.1608,0.1634,0.1689,0.1692,0.1712,0.1733,0.1769,0.1804,0.179,0.1838,0.1813,0.183,0.1826,0.1845,0.1865,0.1795,0.1901,0.2029,0.2054,0.2077,0.2093,0.2117,0.1815,0.1816,0.1816,0,0.1547,0.1567,0.1608,0.1635,0.1659,0.1706,0.1714,0.1741,0.1774,0.1807,0.1832,0.1854,0.1867,0.1887,0.1901,0.1864,0.1894,0.1892,0.2042,0.2066,0.2089,0.2101,0.2127,0.1818,0.1818,0.1818,0.1817,0,0.1527,0.156,0.1569,0.1613,0.1645,0.1667,0.171,0.176,0.1818,0.1841,0.1908,0.1946,0.1975,0.1963,0.1956,0.2072,0.2018,0.202,0.2052,0.2121,0.2124,0.2151,0.1822,0.1821,0.1821,0.182,0,0,0.1431,0.1532,0.1529,0.1572,0.1649,0.1664,0.1724,0.1772,0.1844,0.19,0.1982,0.2023,0.2073,0.2078,0.2069,0.221,0.238,0.2201,0.2207,0.225,0.2588,0.2367,0.2373,0.2411,0.2418,0.2423,0.2497,0,0.1394,0.1445,0.1502,0.1532,0.1556,0.1651,0.1702,0.1778,0.187,0.1955,0.2038,0.2104,0.2093,0.2155,0.2279,0.2369,0.2465,0.2355,0.249,0.2493,0.232,0.2405,0.2445,0.2517,0.2523,0.2528,0.2531,0,0.1314,0.1387,0.1423,0.1541,0.156,0.16,0.1745,0.1806,0.194,0.203,0.2134,0.2179,0.2339,0.2355,0.2579,0.2503,0.2563,0.2637,0.2641,0.2459,0.2327,0.2452,0.2579,0.2575,0.2572,0.2568,0.2565,0,0.1206,0.13,0.1345,0.1381,0.1523,0.1595,0.168,0.1833,0.1925,0.2103,0.222,0.2337,0.2471,0.2601,0.2723,0.2685,0.2967,0.2918,0.2746,0.2725,0.2877,0.2853,0.3098,0.3098,0.3098,0.3098,0.3097,0,0.1115,0.1148,0.1318,0.1344,0.1438,0.157,0.1705,0.1816,0.2007,0.2117,0.2261,0.2373,0.2573,0.2709,0.2775,0.2832,0.2999,0.2802,0.277,0.2877,0.2854,0.289,0.2865,0.31,0.31,0.3099,0.3099,0,0.0969,0.1073,0.1129,0.1308,0.1386,0.1455,0.1703,0.1801,0.2026,0.2197,0.2267,0.2465,0.2656,0.2779,0.2999,0.2902,0.2984,0.2943,0.3007,0.297,0.2623,0.2599,0.2767,0.2761,0.2756,0.2751,0.2747,0,0.09,0.0922,0.108,0.1147,0.1242,0.1409,0.1526,0.1765,0.1884,0.2218,0.2266,0.2516,0.2626,0.2742,0.2868,0.2937,0.2906,0.2869,0.28,0.2657,0.261,0.2594,0.2578,0.2739,0.2738,0.2736,0.2735,0,0.0789,0.0837,0.0908,0.1029,0.1152,0.128,0.148,0.156,0.1846,0.2071,0.2251,0.2353,0.2531,0.2631,0.2704,0.274,0.2867,0.2813,0.2823,0.2758,0.2625,0.2579,0.257,0.2716,0.2719,0.2721,0.2722,0,0.0709,0.0711,0.0801,0.0911,0.1047,0.1134,0.1254,0.1448,0.1604,0.1994,0.2026,0.2302,0.2508,0.2526,0.2589,0.262,0.258,0.247,0.2497,0.2519,0.2403,0.2194,0.2169,0,0,0,0,0,0.064,0.0645,0.07,0.0804,0.0927,0.1007,0.1221,0.1354,0.1647,0.1727,0.1896,0.2055,0.2195,0.2289,0.2277,0.243,0.2549,0.2393,0.2425,0.2614,0.2635,0.2521,0,0,0,0,0,0,0.0585,0.063,0.0644,0.0712,0.0769,0.0887,0.1006,0.1192,0.127,0.1576,0.167,0.1893,0.2054,0.2205,0.2231,0.2261,0.2226,0.2553,0.2546,0.2602,0.2621,0.2639,0.2528,0,0,0,0,0]},{"header":{"parameterUnit":"m.s-1","parameterCategory":2,"la1":30.2991,"la2":30.254,"lo1":-89.0895,"lo2":-89.0444,"dy":0.0017,"dx":0.0017,"nx":28,"ny":28,"refTime":"2023-07-18T03:00:00:Z","depth":"4","parameterNumber":3,"parameterNumberName":"V-component_of_CURRENTS"},"data":[0,0,0,0,0,0,0,0,0,0,0,0,0,0,0,0,0,0,0,0,0,0,0,0,0,0,0,0,0,0,0,0,0,0,0,0,0,0,0,0,0,0,0,0,0,0,0,0,0,0,0,0,0,0,0,0,0,0,0.01,0.01,0,0.0104,0.0104,0.0104,0.0091,0.0091,0.009,0.009,0.0041,0.004,0.0039,0,0,0,0,0,0,0,0,0,0,0,0,0,0.0069,0.007,0.01,0.01,0.01,0.0104,0.0104,0.0104,0.0091,0.0091,0.009,0.009,0.0041,0.004,0.0039,0,0,0,0,0,0,0,0,0,0,0,0,0,0.0079,0.007,0.01,0.0094,0.0093,0.0104,0.0104,0.0104,0.0091,0.0091,0.009,0.0089,0.0042,0.004,0.0039,0.0042,0,0,0.0035,0.0034,0,0,0,0,0,0,0,0,0.0078,0.008,0.0095,0.0094,0.0094,0.0096,0.0075,0.008,0.0091,0.0092,0.009,0.0089,0.0055,0.0052,0.0055,0.004,0.0038,0.0034,0.0034,0.0033,0.0033,0,0,0,0,0,0,0,0.0077,0.0079,0.0101,0.0095,0.0094,0.0087,0.0088,0.0076,0.0076,0.0092,0.0091,0.0092,0.0054,0.0057,0.0054,0.0037,0.0035,0.0033,0.0032,0.0032,-0.0006,-0.0007,0,0,0,0,0,0,0.0078,0.0079,0.0101,0.0101,0.0084,0.0088,0.0089,0.0096,0.0077,0.0074,0.0092,0.0091,0.0059,0.0056,0.0052,0.0048,0.0033,0.0032,0.0031,-0.0006,-0.0007,-0.0007,0,0,0,0,0,0,0.0078,0.0081,0.0101,0.009,0.0092,0.0089,0.0097,0.0096,0.0101,0.0078,0.0073,0.0098,0.0059,0.0054,0.0041,0.0046,0.0031,0.003,-0.0006,-0.0006,-0.0007,0.0043,0,0,0,0,0,0,0.0077,0.008,0.009,0.009,0.0092,0.0117,0.0098,0.0097,0.0102,0.0101,0.0081,0.0076,0.0058,0.0043,0.004,0.0043,0.0029,-0.0006,-0.0006,-0.0007,0.0041,0.0044,0.0047,0,0,0,0,0,0.0076,0.01,0.0091,0.0093,0.0105,0.0118,0.0119,0.0114,0.0103,0.0114,0.0092,0.0077,0.0038,0.0043,0.0038,0.0042,-0.0006,-0.0006,-0.0006,0.004,0.0044,0.0047,0,0,0,0,0,0,0.0095,0.0101,0.0091,0.0115,0.0116,0.0116,0.0132,0.012,0.0113,0.0111,0.008,0.0074,0.0061,0.0044,0.0049,0.0027,0.0012,0.001,0.0048,0.0052,0.0054,0.0091,0.0028,0,0,0,0,0,0.0102,0.0116,0.0117,0.0133,0.0143,0.0135,0.014,0.0135,0.0127,0.0125,0.0106,0.0082,0.0056,0.0049,0.0028,0.0025,-0.0017,0.002,0.0023,0.0025,0.0051,-0.0031,-0.0033,-0.0008,-0.0008,-0.0008,0,0,0.0115,0.0116,0.0127,0.0137,0.0143,0.017,0.0138,0.0155,0.0169,0.0119,0.0134,0.0092,0.0056,0.0046,0.0038,0.0034,-0.0006,0.0025,0.0028,0.0052,-0.0032,-0.0034,-0.0036,-0.0008,-0.0008,-0.0008,0,0,0.0161,0.0152,0.019,0.0192,0.0201,0.0197,0.0203,0.0205,0.0201,0.0203,0.0159,0.0124,0.0105,0.0072,0.0054,0.006,0.0007,0.0046,0.0096,0.0016,0.0013,0.0011,-0.0054,-0.0063,0.0052,0.0052,0.0052,0,0.0177,0.022,0.0202,0.0234,0.0249,0.0214,0.0261,0.025,0.0241,0.0235,0.0218,0.0158,0.0121,0.0093,0.0094,0.0068,0.0017,0.0088,0.002,0.0016,0.0013,-0.0053,-0.0063,0.0054,0.0054,0.0054,0.0053,0,0.0256,0.0283,0.0306,0.0335,0.0344,0.0374,0.036,0.036,0.0343,0.0319,0.0289,0.023,0.0196,0.0165,0.0137,0.0093,0.0062,0.0028,0.0015,0.0013,-0.0056,-0.0068,0.0057,0.0057,0.0056,0.0055,0,0,0.0324,0.0358,0.0369,0.0397,0.0401,0.0423,0.0438,0.0445,0.0456,0.0408,0.0405,0.0342,0.0291,0.0266,0.0204,0.0139,0.0058,0.0084,0.0079,0.0028,-0.0115,-0.0101,-0.0113,0.0002,0.0001,-0.0,-0.0156,0,0.04,0.0485,0.0477,0.055,0.0597,0.056,0.0583,0.0566,0.0537,0.0515,0.0422,0.0395,0.0332,0.0312,0.0232,0.0107,0.0031,0.0104,-0.011,-0.0116,-0.0098,-0.0124,-0.0005,-0.0165,-0.0168,-0.017,-0.0172,0,0.05,0.0538,0.0635,0.0668,0.0688,0.0723,0.0745,0.0757,0.0695,0.0664,0.0595,0.051,0.0416,0.0354,0.0148,0.0195,0.0055,-0.0052,-0.0062,-0.0065,-0.0123,-0.0164,-0.0193,-0.0192,-0.019,-0.0189,-0.0187,0,0.0588,0.0651,0.0734,0.0747,0.0779,0.0817,0.0839,0.0814,0.083,0.0758,0.0745,0.06,0.0538,0.0351,0.0133,0.0134,-0.0112,-0.0146,-0.027,-0.0271,-0.0258,-0.0254,-0.0306,-0.0306,-0.0305,-0.0305,-0.0304,0,0.0678,0.0745,0.0788,0.0832,0.0927,0.0919,0.1007,0.0987,0.0966,0.0973,0.0838,0.0784,0.0532,0.0353,0.0149,-0.0086,-0.0107,-0.0254,-0.0309,-0.0235,-0.0226,-0.0267,-0.0261,-0.0311,-0.0309,-0.0308,-0.0307,0,0.0756,0.0796,0.0883,0.0941,0.0979,0.1045,0.1129,0.1168,0.1145,0.1144,0.1123,0.0918,0.0691,0.0433,0.011,-0.0044,-0.0284,-0.0374,-0.0262,-0.031,-0.0394,-0.0383,-0.0508,-0.0509,-0.0509,-0.051,-0.051,0,0.08,0.0859,0.096,0.103,0.107,0.1177,0.125,0.1262,0.1277,0.1211,0.1182,0.0983,0.0821,0.039,0.0106,-0.0266,-0.0327,-0.0445,-0.0421,-0.0373,-0.0415,-0.0403,-0.0391,-0.0511,-0.0511,-0.0512,-0.0512,0,0.0855,0.0899,0.0962,0.1098,0.1203,0.1309,0.1392,0.1408,0.1396,0.1395,0.1228,0.0999,0.0735,0.0383,0.01,-0.0178,-0.0356,-0.0453,-0.0453,-0.0432,-0.0379,-0.0417,-0.0405,-0.0514,-0.0514,-0.0514,-0.0513,0,0.0893,0.0932,0.1019,0.1142,0.1282,0.1371,0.142,0.1418,0.1431,0.1338,0.1271,0.0996,0.0827,0.0425,0.0148,-0.0097,-0.0161,-0.0241,-0.0254,-0.0255,-0.0131,-0.0024,-0.0092,0,0,0,0,0,0.0903,0.0952,0.1055,0.1177,0.1314,0.1393,0.1474,0.1492,0.1483,0.1385,0.1331,0.1082,0.0678,0.047,0.0228,0.0127,-0.0209,-0.0166,-0.0308,-0.0527,-0.0524,-0.0421,0,0,0,0,0,0,0.091,0.1002,0.1038,0.1187,0.1279,0.141,0.1468,0.146,0.138,0.1341,0.1114,0.1039,0.0627,0.0835,0.0232,0.0155,0.0032,-0.0348,-0.0353,-0.0528,-0.0526,-0.0524,-0.0417,0,0,0,0,0]}]]